FW7198 Weather Reports


time (UTC)temp
C
wind
direction
speed
KPH
gust
KPH
rain 1hr
cm
rain 24hr
cm
rain mn
cm
humidity
%
barometer
mb
20260504081558 8 0 0.0 0.0 0.00 0.00 0.00 84 1017.9
20260504060109 10 0 0.0 3.2 0.00 0.00 0.00 77 1018.6
20260504044556 10 0 0.0 4.8 0.00 0.00 0.00 73 1018.4
20260504043059 11 0 0.0 0.0 0.00 0.00 0.00 72 1018.5
20260504041552 11 0 0.0 0.0 0.00 0.00 0.00 71 1018.5
20260504040054 11 0 0.0 0.0 0.00 0.00 0.00 70 1018.6
20260504034604 12 0 0.0 0.0 0.00 0.00 0.00 68 1018.6
20260504033054 12 0 0.0 0.0 0.00 0.00 0.00 67 1018.7
20260504031546 12 0 0.0 0.0 0.00 0.00 0.00 65 1018.7
20260504030055 12 0 0.0 1.6 0.00 0.00 0.00 64 1018.7
20260504024553 13 0 0.0 0.0 0.00 0.00 0.00 61 1018.7
20260504023054 13 0 0.0 0.0 0.00 0.00 0.00 60 1018.5
20260504021553 13 0 0.0 0.0 0.00 0.00 0.00 58 1018.4
20260504020056 14 0 0.0 3.2 0.00 0.00 0.00 56 1018.1
20260504014559 14 0 0.0 0.0 0.00 0.00 0.00 54 1018.0
20260504013113 15 0 0.0 3.2 0.00 0.00 0.00 52 1017.8
20260504011548 16 0 0.0 0.0 0.00 0.00 0.00 49 1017.7
20260504010048 17 0 0.0 0.0 0.00 0.00 0.00 46 1017.4
20260504004550 17 0 0.0 0.0 0.00 0.00 0.00 44 1017.3
20260504003051 18 0 0.0 0.0 0.00 0.00 0.00 42 1017.3
20260504001551 20 0 0.0 0.0 0.00 0.00 0.00 40 1017.2
20260504000052 20 0 0.0 6.4 0.00 0.00 0.00 38 1017.1
20260503234549 21 0 0.0 12.9 0.00 0.00 0.00 35 1017.0
20260503233049 21 303 0.0 6.4 0.00 0.00 0.00 36 1017.0
20260503231546 21 271 3.2 14.5 0.00 0.00 0.00 35 1016.9
20260503230047 21 304 3.2 16.1 0.00 0.00 0.00 34 1017.1
20260503224552 22 285 1.6 16.1 0.00 0.00 0.00 34 1017.2
20260503223048 22 281 6.4 14.5 0.00 0.00 0.00 31 1017.1
20260503221559 22 280 3.2 14.5 0.00 0.00 0.00 34 1017.1
20260503220046 22 286 1.6 14.5 0.00 0.00 0.00 32 1017.1
20260503214550 22 243 6.4 14.5 0.00 0.00 0.00 31 1017.2
20260503213054 22 281 1.6 17.7 0.00 0.00 0.00 34 1017.4
20260503211550 22 251 4.8 16.1 0.00 0.00 0.00 34 1017.4
20260503210054 22 331 3.2 17.7 0.00 0.00 0.00 37 1017.4
20260503204614 23 333 4.8 17.7 0.00 0.00 0.00 35 1017.2
20260503203100 22 291 1.6 9.7 0.00 0.00 0.00 35 1017.6
20260503201553 22 323 4.8 14.5 0.00 0.00 0.00 36 1018.1
20260503200053 22 283 6.4 17.7 0.00 0.00 0.00 36 1018.2
20260503194609 22 315 3.2 11.3 0.00 0.00 0.00 34 1018.6
20260503193115 22 263 4.8 14.5 0.00 0.00 0.00 35 1018.7
20260503191616 22 278 3.2 14.5 0.00 0.00 0.00 34 1019.0
20260503190058 22 154 3.2 14.5 0.00 0.00 0.00 34 1019.2
20260503184600 22 284 4.8 11.3 0.00 0.00 0.00 30 1019.6
20260503183046 21 133 3.2 14.5 0.00 0.00 0.00 33 1019.7
20260503181554 21 138 3.2 17.7 0.00 0.00 0.00 34 1019.8
20260503180057 20 143 1.6 11.3 0.00 0.00 0.00 39 1019.8
20260503174555 20 267 3.2 9.7 0.00 0.00 0.00 37 1019.8
20260503173055 20 284 8.0 14.5 0.00 0.00 0.00 37 1020.0
20260503171553 20 291 6.4 11.3 0.00 0.00 0.00 38 1020.0
20260503170106 20 268 1.6 8.0 0.00 0.00 0.00 42 1020.2
20260503160104 18 167 0.0 4.8 0.00 0.00 0.00 47 1020.8